This is the latest recevied weather packets stored in our database for station/object K6HN. If no packets are shown the sender has not sent any weather packets the latest 10 day(s).
| Time | Temp. | Humidity | Pressure | Rain* | Wind** | Luminosity | Snow |
|---|---|---|---|---|---|---|---|
| 1777775279 | 11.11° C | 51% | 997 hPa | 0 mm | - | - | - |
| 1777774379 | 11.67° C | 51% | 997 hPa | 0 mm | - | - | - |
| 1777768079 | 12.78° C | 51% | 997.6 hPa | 0 mm | - | - | - |
| 1777764479 | 12.78° C | 50% | 997.6 hPa | 0 mm | - | - | - |
| 1777760879 | 12.78° C | 50% | 999 hPa | 0 mm | - | - | - |
| 1777759979 | 13.33° C | 51% | 999 hPa | 0 mm | - | - | - |
| 1777758179 | 13.33° C | 51% | 999 hPa | 0 mm | - | - | - |
| 1777757279 | 12.78° C | 51% | 999.3 hPa | 0 mm | - | - | - |
| 1777751879 | 12.78° C | 51% | 1000 hPa | 0 mm | - | - | - |
| 1777746479 | 11.67° C | 50% | 999.7 hPa | 0 mm | - | - | - |
| 1777739279 | 11.11° C | 52% | 999.3 hPa | 0 mm | - | - | - |
| 1777735679 | 11.11° C | 52% | 999.3 hPa | 0 mm | - | - | - |
| 1777734779 | 10.56° C | 52% | 999 hPa | 0 mm | - | - | - |
| 1777733879 | 10.56° C | 52% | 999 hPa | 0 mm | - | - | - |
| 1777732979 | 10.56° C | 52% | 999 hPa | 0 mm | - | - | - |
| 1777732079 | 10.56° C | 51% | 998.6 hPa | 0 mm | - | - | - |
| 1777731179 | 10.56° C | 51% | 998.6 hPa | 0 mm | - | - | - |
| 1777730279 | 10.56° C | 51% | 998.3 hPa | 0 mm | - | - | - |
| 1777728479 | 10.56° C | 51% | 998.3 hPa | 0 mm | - | - | - |
| 1777727579 | 10.56° C | 51% | 998.3 hPa | 0 mm | - | - | - |
| 1777726679 | 10.56° C | 51% | 998 hPa | 0 mm | - | - | - |
| 1777724879 | 10.56° C | 51% | 998.3 hPa | 0 mm | - | - | - |
| 1777723979 | 10.56° C | 51% | 998 hPa | 0 mm | - | - | - |
| 1777723079 | 10.56° C | 51% | 998 hPa | 0 mm | - | - | - |
| 1777721279 | 10.56° C | 51% | 998.3 hPa | 0 mm | - | - | - |
* Rain latest hour (hover to see other rain measurements)
** Current wind speed in m/s (hover to see current wind gust speed)